User: anonymous   Login
Location: Unspecified
(0.0000°N, 0.0000°E)
Time: 15:09:31
(UTC+02:00)
Language:

ADEOS II - Orbit

View from above orbital plane
View from above orbital plane
View from above satellite
View from above satellite

Ground track
Ground track

The orbit data is extracted from the following two-line orbital elements,

1 27597U 02056A   15110.51246944  .00000440  00000-0  19754-3 0  9993
2 27597 098.2855 107.0115 0002164 106.1488 053.9410 14.27058643642920
Epoch (UTC): 20 April 2015 12:17:57
Eccentricity: 0.0002164
inclination: 98.2855°
perigee height: 800 km
apogee height: 803 km
right ascension of ascending node: 107.0115°
argument of perigee: 106.1488°
revolutions per day: 14.27058643
mean anomaly at epoch: 53.9410°
orbit number at epoch: 64292

The dashed part of the orbit path shows where the satellite is in the earth's shadow,  

DLR